{"data":{"norad_id":49459,"intl_designator":"2021-104BD","name":"STARLINK-3141","alt_names":[],"object_type":"PAYLOAD","status":"ACTIVE","operator":null,"country":"US","launch_date":"2021-11-13","launch_site_code":"AFETR","launch_vehicle":null,"mission":null,"orbit_class":"UNKNOWN","rcs_meters":null,"size_class":null,"mass_kg":null,"dimensions":null,"purposes":["comms"],"wikipedia_slug":null,"has_3d_model":false,"image_url":null,"decayed_at":null,"tle_current":{"epoch":"2026-05-25T05:27:35.630208Z","epoch_age_seconds":65503,"freshness":"FRESH","line1":"1 49459U 21104BD  26145.22749572 -.00000987  00000+0 -43958-4 0  9993","line2":"2 49459  53.2126 235.5291 0000965 124.4486 235.6597 15.08827934250335","mean_motion":15.08827934,"eccentricity":9.65e-5,"inclination_deg":53.2126,"raan_deg":235.5291,"arg_perigee_deg":124.4486,"mean_anomaly_deg":235.6597,"bstar":-4.3958e-5,"rev_number":25033,"period_min":95.438317885756,"perigee_km":539.11269112824,"apogee_km":540.44784916137,"semimajor_km":6917.9172701448,"source":"CELESTRAK","updated_at":"2026-05-25T13:38:16.830295Z"}}}